• Join FlightAware (Why Join?)
  • Login
  • US Flag 
02:20AM EDT


 

Airport Tracker/Info


-or-


 

Live Flight TrackerFlight Track Log ✈ SWA1187 ✈ 09-May-2013 ✈ KMSP - KMKE

Flight Track Log - Related Links

Times and Time Zones

All times are in EDT time to prevent confusion due to time zone crossing. See the SWA1187 flight status page for this flight to view local times or setup timezone preferences in your user account.

Time Position Orientation Groundspeed Altitude Reporting Facility
EDT Latitude Longitude Course Direction KTS MPH feet Rate Location/Type
07:03AM 44.8500 -93.2333 164° South 160 184 2,600  Level Minneapolis TRACON
07:04AM 44.7944 -93.2114 164° South 195 224 5,900 2,820 Climbing Minneapolis Center
07:05AM 44.7542 -93.1253 123° Southeast 255 293 9,000 3,060 Climbing Minneapolis Center
07:06AM 44.7269 -93.0161 109° East 304 350 12,100 3,480 Climbing Minneapolis Center
07:07AM 44.7011 -92.8903 106° East 334 384 16,100 3,780 Climbing Minneapolis Center
07:08AM 44.6736 -92.7600 106° East 347 399 19,800 3,600 Climbing Minneapolis Center
07:09AM 44.6375 -92.5889 106° East 375 432 23,400 3,600 Climbing Minneapolis Center
07:10AM 44.6033 -92.4378 108° East 401 461 27,100 2,700 Climbing Minneapolis Center
07:11AM 44.5553 -92.2994 116° Southeast 397 457 29,000 1,920 Climbing Minneapolis Center
07:12AM 44.5056 -92.1522 115° Southeast 406 467 31,000 1,680 Climbing Minneapolis Center
07:13AM 44.4539 -91.9967 115° Southeast 422 486 32,400 960 Climbing Minneapolis Center
07:14AM 44.4000 -91.8347 115° Southeast 446 513 33,000 240 Climbing Minneapolis Center
07:15AM 44.3433 -91.6692 116° Southeast 467 537 33,000  Level Minneapolis Center
07:16AM 44.2881 -91.5053 115° Southeast 469 540 33,000  Level Minneapolis Center
07:17AM 44.2322 -91.3439 116° Southeast 465 535 33,000  Level Minneapolis Center
07:18AM 44.1794 -91.1869 115° Southeast 463 533 33,000  Level Minneapolis Center
07:19AM 44.1219 -91.0258 116° Southeast 466 536 33,000  Level Minneapolis Center
07:20AM 44.0667 -90.8650 116° Southeast 465 535 33,000  Level Minneapolis Center
07:21AM 44.0103 -90.7053 116° Southeast 464 534 33,000  Level Minneapolis Center
07:22AM 43.9414 -90.5078 116° Southeast 467 537 33,000  Level Minneapolis Center
07:23AM 43.8833 -90.3456 116° Southeast 470 541 33,000 -480 Level Minneapolis Center
07:24AM 43.8244 -90.1836 117° Southeast 471 542 32,100 -960 Descending Minneapolis Center
07:25AM 43.7664 -90.0206 116° Southeast 472 543 31,100 -1,020 Descending Minneapolis Center
07:26AM 43.7083 -89.8608 117° Southeast 467 537 30,100 -1,020 Descending Minneapolis Center
07:27AM 43.6514 -89.7042 117° Southeast 461 531 29,100 -960 Descending Minneapolis Center
07:28AM 43.6222 -89.6269 118° Southeast 456 525 28,600 -1,140 Descending Chicago Center
07:29AM 43.5664 -89.4739 117° Southeast 451 519 27,300 -2,580 Descending Chicago Center
07:30AM 43.5008 -89.2989 117° Southeast 442 509 23,400 -3,360 Descending Chicago Center
07:31AM 43.4469 -89.1556 117° Southeast 429 494 20,500 -2,760 Descending Chicago Center
07:32AM 43.3958 -89.0186 117° Southeast 410 472 17,800 -2,700 Descending Chicago Center
07:33AM 43.3461 -88.8869 117° Southeast 395 455 15,000 -2,580 Descending Chicago Center
07:34AM 43.2986 -88.7619 118° Southeast 376 433 12,600 -1,680 Descending Chicago Center
07:35AM 43.2550 -88.6447 117° Southeast 353 406 11,600 -1,200 Descending Chicago Center
07:36AM 43.2056 -88.5178 118° Southeast 331 381 10,200 -780 Descending Chicago Center
07:37AM 43.1650 -88.4125 118° Southeast 319 367 10,000 -540 Descending Chicago Center
07:38AM 43.1283 -88.3150 117° Southeast 299 344 9,100 -960 Descending Chicago Center
07:39AM 43.1108 -88.2106 103° East 288 331 8,100 -1,080 Descending Chicago Center
07:40AM 43.1000 -88.1000 98° East 282 325 7,100 -600 Descending KMKE
07:41AM 43.1000 -88.0000 90° East 235 270 7,000 -480 Descending KMKE
07:42AM 43.0833 -87.9167 105° East 238 274 6,200 -1,320 Descending KMKE
07:43AM 43.0703 -87.8200 100° East 233 268 4,300 -1,380 Descending Chicago Center
07:44AM 43.0144 -87.7900 159° South 218 251 3,200 -1,020 Descending Chicago Center
07:45AM 42.9714 -87.7894 179° South 179 206 2,200 -900 Descending Chicago Center
07:46AM 42.9561 -87.8444 249° West 147 169 1,400 -780 Descending Chicago Center
07:47AM 42.9500 -87.8833 258° West 121 139 700 -780 Descending KMKE
07:49AM 42.9333 -87.8833 200° South  Level FlightAware Approximate